User: anonymous   Login
Location: Unspecified
(0.0000°N, 0.0000°E)
Time: 17:54:54
(UTC+00:00)
Language:

S-56A Canister/Altair - Orbit

View from above orbital plane
View from above orbital plane
View from above satellite
View from above satellite

Ground track
Ground track

The orbit data is extracted from the following two-line orbital elements,

1    82U 61004B   20018.02956563 -.00000036  00000-0  22963-4 0  9994
2    82  38.8573  39.0704 1173553  72.7472 299.8061 12.26059351789220
Epoch (UTC): 18 January 2020 00:42:34
Eccentricity: 0.1173553
inclination: 38.8573°
perigee height: 634 km
apogee height: 2498 km
right ascension of ascending node: 39.0704°
argument of perigee: 72.7472°
revolutions per day: 12.26059351
mean anomaly at epoch: 299.8061°
orbit number at epoch: 78922

The dashed part of the orbit path shows where the satellite is in the earth's shadow,  

DLR